Regional Weather Roundup
Issued by NWS

Home | Current Version | Previous Version | Text Only | Print | Product List | Glossary Off
Versions: 1 2 3 4 5 6 7 8 9 10 11 12 13 14 15 16 17 18 19 20 21 22 23 24 25 26 27 28 29 30 31 32 33 34 35 36 37 38 39 40 41 42 43 44 45 46 47 48 49 50

000
ASUS45 KSLC 220910
RWRUT

UTAH REGIONAL WEATHER ROUNDUP
NATIONAL WEATHER SERVICE SALT LAKE CITY UT
300 AM MDT SAT JUL 22 2017

UTZ001>011-023>025-221000-

NORTHERN UTAH

CITY           SKY/WX    TMP DP  RH WIND       PRES   REMARKS
BRIGHAM CITY   CLEAR     68  34  28 CALM      30.07R
HILL AFB       CLEAR     73  45  37 E15       30.10R
LOGAN          CLEAR     63  47  55 CALM      30.10S
OGDEN          CLEAR     73  43  33 SW6       30.06R
SALT LAKE CITY CLEAR     80  51  36 S10       30.04S
TOOELE VALLEY  CLEAR     68  45  42 S7        30.06S
WENDOVER       CLEAR     78  33  19 W7        30.07R
HEBER CITY     PTCLDY    59  50  72 CALM      30.19S
WEST JORDAN    CLEAR     71  55  56 S6        30.09S

$$

UTZ011>015-024>027-221000-

CENTRAL/NORTHEAST UTAH

CITY           SKY/WX    TMP DP  RH WIND       PRES   REMARKS
PROVO AIRPORT  CLEAR     75  52  44 SE14      30.10R
MOAB/CANYONLAN MOCLDY    67  62  84 CALM      30.12F
DELTA          CLEAR     72  46  40 E5        30.09S
PRICE          MOCLDY    61  56  83 CALM      30.24F
ROOSEVELT      CLOUDY    57  52  82 CALM      30.22F
VERNAL         CLOUDY    65  53  65 NW7       30.20F

$$

UTZ013>016-019>022-027-221000-

SOUTHERN UTAH

CITY           SKY/WX    TMP DP  RH WIND       PRES   REMARKS
BRYCE CANYON   PTCLDY    54  51  90 SW3       30.35F
CEDAR CITY     MOCLDY    73  50  44 E5        30.17S
MILFORD        CLEAR     75  51  43 SW12      30.11S
ST GEORGE      MOSUNNY   86  54  33 S9        29.96F
HANKSVILLE     PTCLDY    68  55  64 W3        30.16S
BLANDING       CLOUDY    64  58  83 CALM      30.26S

$$

REGIONAL REPORTS     COLORADO/ARIZONA

CITY           SKY/WX    TMP DP  RH WIND       PRES   REMARKS
CRAIG, CO      CLOUDY    53  50  89 SW6       30.27S
GRAND JUNCTION CLOUDY    66  63  90 W3        30.16S
RIFLE, CO      CLOUDY    64  58  80 SW5       30.21F
MONTROSE, CO   CLOUDY    63  58  83 S10       30.22F
CORTEZ, CO     CLEAR     59  56  89 NE5       30.17F
COLORADO CITY    N/A     79  54  41 NE8       30.16F
PAGE, AZ       MOCLDY    78  56  46 CALM      30.10R
GRAND CANYON   MOCLDY    62  58  86 CALM      30.28S
KINGMAN, AZ    MOCLDY    83  55  38 S7        30.01S
FLAGSTAFF, AZ  CLOUDY    58  57  97 CALM      30.29F

$$

REGIONAL REPORTS    NEVADA/IDAHO/WYOMING

CITY           SKY/WX    TMP DP  RH WIND       PRES   REMARKS
LAS VEGAS, NV  PTCLDY    90  50  25 S6        29.86S
ELY, NY        CLEAR     59  38  45 E6        30.19S
ELKO, NV       CLEAR     59  40  49 W5        30.14S
POCATELLO, ID  CLEAR     57  36  45 CALM      30.12S
BURLEY, ID     CLEAR     58  44  60 S5        30.09S
FORT BRIDGER,    N/A     60  37  40 W8        30.32F
EVANSTON, WY   CLOUDY    62  41  46 E5        30.30F
ROCK SPRINGS,  CLOUDY    60  48  64 CALM      30.27S
KEMMERER, WY     N/A     55  32  41 CALM      30.32S

$$



USA.gov is the U.S. government's official web portal to all federal, state and local government web resources and services.